Regional Weather Roundup
Issued by NWS

Home | Current Version | Previous Version | Text Only | Print | Product List | Glossary Off
Versions: 1 2 3 4 5 6 7 8 9 10 11 12 13 14 15 16 17 18 19 20 21 22 23 24 25 26 27 28 29 30 31 32 33 34 35 36 37 38 39 40 41 42 43 44 45 46 47 48 49 50

000
ASUS43 KLOT 241708
RWRIL

ILLINOIS REGIONAL WEATHER ROUNDUP
NATIONAL WEATHER SERVICE CHICAGO/ROMEOVILLE IL
1200 PM CDT TUE MAY 24 2016

NOTE: "FAIR" INDICATES FEW OR NO CLOUDS BELOW 12,000 FEET WITH NO
SIGNIFICANT WEATHER AND/OR OBSTRUCTIONS TO VISIBILITY.

* THESE STATIONS ARE NOT UNDER NWS QUALITY CONTROL. THEY ALSO MAY NOT
  REPORT WEATHER SUCH AS PRECIPITATION OR FOG.

ILZ001-002-007-009-015-016-024-241800-
NORTHWEST ILLINOIS

CITY           SKY/WX    TMP DP  RH WIND       PRES   REMARKS
MOLINE         PTSUNNY   82  59  45 S10       29.94S HX  82
STERLING*      MOSUNNY   81  59  47 S12G17    29.97S HX  81
SAVANNA*       CLOUDY    80  62  54 S10       29.95S HX  81
$$

ILZ003-004-008-010-011-017-018-241800-
NORTH CENTRAL ILLINOIS

CITY           SKY/WX    TMP DP  RH WIND       PRES   REMARKS
ROCKFORD       PTSUNNY   81  58  45 S15G21    29.97F HX  81
FREEPORT*      PTSUNNY   80  62  53 SW13G20   29.97F HX  81
ROCHELLE*      MOSUNNY   82  59  45 S14G22    29.98F HX  82
DE KALB*       PTSUNNY   81  60  48 S15       30.00S HX  82
$$

ILZ005-006-012>014-019>023-241800-
NORTHEAST ILLINOIS

CITY           SKY/WX    TMP DP  RH WIND       PRES   REMARKS
CHICAGO-OHARE  MOSUNNY   80  54  40 SW15      29.99S HX  80
CHICAGO-MIDWAY PTSUNNY   83  52  34 S16G23    29.99F HX  82
AURORA         SUNNY     83  56  39 SW16      29.99S HX  82
LANSING*       SUNNY     82  50  33 SW16G22   30.01S HX  80
JOLIET*        SUNNY     83  56  38 S10G17    30.00S HX  83
WAUKEGAN       SUNNY     81  57  43 SW14G22   29.97S HX  81
DUPAGE AIRPORT SUNNY     81  55  40 SW17G23   29.98F HX  81
KANKAKEE*      SUNNY    N/A N/A N/A SW12G22   30.02S
WHEELING       SUNNY     81  55  40 S15       30.00R HX  81
MORRIS*        SUNNY     83  52  33 S13G20    29.98F HX  82
ROMEOVILLE*    SUNNY     82  48  30 SW16G22   30.00S HX  80
NORTHERLY ISL    N/A     80  46  30 S9          N/A
NORTHERLY ISL    N/A     80  46  30 S9          N/A
$$

LMZ740>746-241800-
SOUTHERN LAKE MICHIGAN

STATION/POSITION SKY/WX   TEMP    WIND        PRES    VSBY  WAVE
                          AIR SEA DIR/SP/G                  HT/PER
                          (F)     (DEG/KT/KT) (MB)    (MI)  (FT/S)
SOUTHERN BUOY              53 48  160/ 10/ 12 1015.5F         1/ 3
WILMETTE HARBOR            68 55  200/  6/  8   N/A           1/ 2
HARRISON CRIB              76     210/ 12/ 12   N/A
BURNHAM HARBOR             80     240/  8/ 14   N/A
CALUMET HARBOR             78     200/ 13/ 16 1015.3F
BURNS HARBOR               71     240/ 10/ 14 1016.9S
MICHIGAN CITY              71     270/  3/  5   N/A
MICHIGAN CITY 6N           73 58   CALM  /  2   N/A           0
ST. JOSEPH                 69 59  250/  2/  4   N/A           1
$$

ILZ025>027-034>036-040-047-049-050-058-095>099-241800-
WEST-CENTRAL ILLINOIS

CITY           SKY/WX    TMP DP  RH WIND       PRES   REMARKS
QUINCY         MOSUNNY   78  61  55 S8        29.97F HX  80
GALESBURG*     SUNNY     79  60  52 S8G17     29.97F HX  80
MACOMB*        SUNNY     81  58  45 S14       30.00S HX  81
JACKSONVILLE*  MOSUNNY   80  60  50 SE8       29.99F HX  81
PITTSFIELD*    SUNNY     79  62  57 SW9       30.01S HX  80
$$

ILZ028>032-037-038-041>044-048-051>054-059>061-241800-
CENTRAL ILLINOIS

CITY           SKY/WX    TMP DP  RH WIND       PRES   REMARKS
PONTIAC        SUNNY     84  51  31 SW15G22   30.00F HX  82
BLOOMINGTON    SUNNY     83  55  37 S18G26    30.02S HX  82
DECATUR        SUNNY     82  57  42 S16G25    30.02S HX  82
PEORIA         SUNNY     81  58  45 S15       29.99F HX  81
LACON*         SUNNY     79  58  48 SW10      29.98F HX  80
LINCOLN*       SUNNY     83  59  44 S9G16     30.00S HX  83
SPRINGFIELD    MOSUNNY   80  59  48 SW12      30.01R HX  81
TAYLORVILLE    MOSUNNY   80  57  45 S16       30.02S HX  80
$$

ILZ033-039-045-046-055>057-062-063-241800-
EAST-CENTRAL ILLINOIS

CITY           SKY/WX    TMP DP  RH WIND       PRES   REMARKS
CHAMPAIGN      SUNNY     85  49  28 S16       30.02F HX  83
RANTOUL*       SUNNY     85  49  28 S16G23    30.02F HX  82
MATTOON        SUNNY     79  53  40 S12G23    30.04F
PARIS*         SUNNY     83  54  37 S12       30.06F HX  82
$$

ILZ079-100>102-241800-
SOUTHWEST ILLINOIS

CITY           SKY/WX    TMP DP  RH WIND       PRES   REMARKS
ALTON          PTSUNNY   75  61  60 S16       30.01F
BELLEVILLE     CLOUDY    76  64  65 E10       30.01F
CAHOKIA*       SUNNY     79  62  56 SE9       30.01F HX  80
SPARTA*        CLOUDY    75  61  61 SE9       30.04F
$$

ILZ064>066-069>071-074>076-080>082-084>086-088>090-092>094-241800-
SOUTH-CENTRAL ILLINOIS

CITY           SKY/WX    TMP DP  RH WIND       PRES   REMARKS
CARBONDALE     LGT RAIN  72  59  63 SE8       30.06S
CAIRO*         CLOUDY    78  60  54 S6        30.06F
EFFINGHAM*     CLOUDY    80  59  48 S13       30.07F HX  81
MARION         CLOUDY    75  61  60 S12       30.08S
MT. VERNON     CLOUDY    75  59  57 S9        30.08S
CENTRALIA*     CLOUDY    76  61  60 SE9       30.04F
SALEM*         CLOUDY    78  57  49 S9        30.06S
METROPOLIS*    CLOUDY    76  64  67 SE3       30.09S
$$

ILZ067-068-072-073-078-083-087-091-241800-
SOUTHEAST ILLINOIS

CITY           SKY/WX    TMP DP  RH WIND       PRES   REMARKS
LAWRENCEVILLE  SUNNY     82  57  42 SW16      30.08F HX  82
FLORA*         MOSUNNY   80  58  47 S14       30.07S HX  80
FAIRFIELD*     CLOUDY    76  58  53 S6        30.07S
HARRISBURG*    CLOUDY    75  60  58 S6        30.09R
ROBINSON*      SUNNY     79  59  51 SW8       30.08F HX  80
CARMI*         CLOUDY    77  60  54 S9        30.08S
$$

ABBREVIATIONS USED IN REMARKS
   TC - TEMPERATURE IN CELSIUS
  WCI - WIND CHILL INDEX
   HX - HEAT INDEX
  VSB - VISIBILITY
$$





USA.gov is the U.S. government's official web portal to all federal, state and local government web resources and services.